YB3RDW-13 Weather Reports


time (UTC)temp
F
wind
direction
speed
knots
gust
knots
rain 1hr
in
rain 24hr
in
rain mn
in
humidity
%
barometer
mb
20260508185159 82 163 0.0 0.0 0.00 0.00 0.00 87 1011.0
20260508184658 82 145 1.7 1.7 0.00 0.00 0.00 87 1011.0
20260508184158 82 126 1.7 1.7 0.00 0.00 0.00 87 1011.0
20260508183658 82 151 1.7 1.7 0.00 0.00 0.00 86 1011.0
20260508183158 82 147 1.7 1.7 0.00 0.00 0.00 86 1011.0
20260508182657 82 149 1.7 1.7 0.00 0.00 0.00 86 1011.0
20260508182158 82 156 0.9 1.7 0.00 0.00 0.00 86 1011.0
20260508181657 82 144 0.9 1.7 0.00 0.00 0.00 86 1011.0
20260508181158 82 125 2.6 2.6 0.00 0.00 0.00 86 1011.0
20260508180657 82 147 0.9 1.7 0.00 0.00 0.00 86 1011.0
20260508180158 82 146 0.9 0.9 0.00 0.00 0.00 86 1011.0
20260508175658 82 161 0.0 0.0 0.00 0.00 0.00 86 1011.0
20260508175159 82 147 0.0 0.0 0.00 0.00 0.00 86 1011.0
20260508174657 82 153 0.0 0.0 0.00 0.00 0.00 86 1011.0
20260508174159 82 141 0.0 0.0 0.00 0.00 0.00 85 1011.0
20260508173659 82 162 0.0 0.0 0.00 0.00 0.00 86 1011.0
20260508173158 82 157 0.0 0.9 0.00 0.00 0.00 85 1011.0
20260508172657 82 159 0.9 0.9 0.00 0.00 0.00 85 1012.0
20260508172158 82 154 0.0 0.0 0.00 0.00 0.00 85 1012.0
20260508171657 82 156 0.0 0.0 0.00 0.00 0.00 85 1012.0
20260508171157 82 121 1.7 1.7 0.00 0.00 0.00 84 1012.0
20260508170700 82 159 0.9 1.7 0.00 0.00 0.00 84 1012.0
20260508170201 82 224 1.7 1.7 0.00 0.00 0.00 85 1012.0
20260508165658 82 162 0.9 0.9 0.00 0.00 0.00 85 1012.0
20260508165158 82 179 0.9 0.9 0.00 0.00 0.00 86 1012.0
20260508164701 82 267 2.6 2.6 0.00 0.00 0.00 86 1012.0
20260508164159 82 174 0.9 1.7 0.00 0.00 0.00 85 1012.0
20260508163657 82 260 3.5 4.3 0.00 0.00 0.00 85 1012.0
20260508163159 82 208 1.7 1.7 0.00 0.00 0.00 86 1012.0
20260508162658 82 174 0.9 1.7 0.00 0.00 0.00 86 1012.0
20260508162200 82 173 0.9 0.9 0.00 0.00 0.00 86 1012.0
20260508161658 82 269 2.6 4.3 0.00 0.00 0.00 86 1012.0
20260508161202 83 321 5.2 6.1 0.00 0.00 0.00 86 1012.0
20260508160659 83 219 1.7 1.7 0.00 0.00 0.00 86 1012.0
20260508160158 83 240 2.6 4.3 0.00 0.00 0.00 86 1012.0
20260508155657 83 302 4.3 5.2 0.00 0.00 0.00 85 1012.0
20260508155200 83 313 3.5 5.2 0.00 0.00 0.00 85 1012.0
20260508154700 83 231 2.6 4.3 0.00 0.00 0.00 87 1012.0
20260508154158 83 172 0.9 0.9 0.00 0.00 0.00 88 1012.0
20260508153657 83 300 6.1 7.0 0.00 0.00 0.00 88 1012.0
20260508153159 83 311 4.3 6.1 0.00 0.00 0.00 89 1012.0
20260508152657 83 248 2.6 2.6 0.00 0.00 0.00 89 1012.0
20260508152201 84 113 1.7 1.7 0.00 0.00 0.00 87 1012.0
20260508151658 85 199 1.7 1.7 0.00 0.00 0.00 85 1012.0
20260508151158 84 178 0.9 0.9 0.00 0.00 0.00 85 1012.0
20260508150658 84 169 0.0 0.0 0.00 0.00 0.00 86 1012.0
20260508150158 84 208 2.6 2.6 0.00 0.00 0.00 86 1012.0
20260508145657 84 175 0.9 1.7 0.00 0.00 0.00 86 1012.0
20260508145158 84 251 2.6 2.6 0.00 0.00 0.00 85 1012.0
20260508144657 85 224 2.6 2.6 0.00 0.00 0.00 85 1012.0
20260508144157 85 200 4.3 5.2 0.00 0.00 0.00 85 1012.0
20260508143657 85 196 1.7 1.7 0.00 0.00 0.00 84 1012.0
20260508143157 85 198 1.7 1.7 0.00 0.00 0.00 84 1012.0
20260508142658 85 171 2.6 2.6 0.00 0.00 0.00 84 1012.0
20260508142157 85 301 4.3 5.2 0.00 0.00 0.00 83 1012.0
20260508141657 86 176 0.9 1.7 0.00 0.00 0.00 82 1012.0
20260508141158 86 170 0.0 0.9 0.00 0.00 0.00 82 1012.0
20260508140658 86 194 0.9 0.9 0.00 0.00 0.00 82 1012.0
20260508140157 86 262 3.5 4.3 0.00 0.00 0.00 82 1012.0
20260508135657 86 162 1.7 1.7 0.00 0.00 0.00 82 1012.0
20260508135157 86 264 3.5 4.3 0.00 0.00 0.00 81 1012.0
20260508134657 86 291 4.3 6.1 0.00 0.00 0.00 81 1012.0
20260508134159 86 212 1.7 1.7 0.00 0.00 0.00 81 1012.0
20260508133658 86 203 0.9 1.7 0.00 0.00 0.00 80 1012.0
20260508133157 86 262 6.1 7.8 0.00 0.00 0.00 80 1012.0
20260508132657 86 232 2.6 2.6 0.00 0.00 0.00 80 1012.0
20260508132158 86 280 3.5 4.3 0.00 0.00 0.00 79 1012.0
20260508131657 86 293 3.5 5.2 0.00 0.00 0.00 79 1011.0
20260508131158 86 277 4.3 6.1 0.00 0.00 0.00 79 1012.0
20260508130658 86 322 6.1 7.0 0.00 0.00 0.00 79 1012.0
20260508130157 86 318 3.5 5.2 0.00 0.00 0.00 79 1012.0
20260508125658 86 280 4.3 5.2 0.00 0.00 0.00 79 1012.0
20260508125157 86 275 2.6 2.6 0.00 0.00 0.00 79 1011.0
20260508124657 86 303 6.1 7.0 0.00 0.00 0.00 78 1011.0
20260508124157 86 305 4.3 6.1 0.00 0.00 0.00 79 1011.0
20260508123657 86 272 3.5 4.3 0.00 0.00 0.00 79 1011.0
20260508123157 86 310 6.1 7.8 0.00 0.00 0.00 79 1011.0
20260508122700 86 99 4.3 5.2 0.00 0.00 0.00 78 1011.0
20260508122157 86 292 2.6 2.6 0.00 0.00 0.00 78 1011.0
20260508121658 86 296 3.5 4.3 0.00 0.00 0.00 78 1011.0
20260508121157 86 233 2.6 2.6 0.00 0.00 0.00 78 1011.0
20260508120658 86 246 2.6 2.6 0.00 0.00 0.00 78 1011.0
20260508120158 86 327 5.2 6.1 0.00 0.00 0.00 77 1011.0
20260508115657 87 184 3.5 4.3 0.00 0.00 0.00 77 1010.0
20260508115157 87 217 3.5 4.3 0.00 0.00 0.00 76 1011.0
20260508114657 86 309 4.3 6.1 0.00 0.00 0.00 76 1010.0
20260508114157 87 310 6.1 7.8 0.00 0.00 0.00 76 1010.0
20260508113657 87 230 4.3 6.1 0.00 0.00 0.00 76 1010.0
20260508113157 87 275 3.5 5.2 0.00 0.00 0.00 75 1010.0
20260508112657 87 264 3.5 5.2 0.00 0.00 0.00 74 1010.0
20260508112157 87 289 2.6 4.3 0.00 0.00 0.00 74 1010.0
20260508111658 87 229 0.9 1.7 0.00 0.00 0.00 74 1010.0
20260508111158 86 225 2.6 2.6 0.00 0.00 0.00 74 1010.0
20260508110657 86 301 4.3 5.2 0.00 0.00 0.00 74 1010.0
20260508110157 86 319 5.2 7.0 0.00 0.00 0.00 74 1010.0
20260508105659 87 289 3.5 4.3 0.00 0.00 0.00 74 1010.0
20260508105157 87 274 2.6 4.3 0.00 0.00 0.00 74 1009.0
20260508104657 87 276 3.5 6.1 0.00 0.00 0.00 73 1009.0
20260508104158 87 124 2.6 4.3 0.00 0.00 0.00 72 1009.0
20260508103657 87 236 1.7 1.7 0.00 0.00 0.00 72 1009.0
20260508103157 87 266 3.5 4.3 0.00 0.00 0.00 72 1009.0
20260508102659 87 231 1.7 1.7 0.00 0.00 0.00 73 1009.0
20260508102159 87 259 5.2 6.1 0.00 0.00 0.00 73 1009.0
20260508101657 87 142 1.7 1.7 0.00 0.00 0.00 73 1009.0
20260508101159 87 305 2.6 4.3 0.00 0.00 0.00 73 1009.0
20260508100659 87 289 3.5 4.3 0.00 0.00 0.00 73 1009.0
20260508100157 88 287 3.5 4.3 0.00 0.00 0.00 72 1009.0
20260508095657 88 262 2.6 2.6 0.00 0.00 0.00 72 1009.0
20260508095206 88 280 3.5 5.2 0.00 0.00 0.00 71 1009.0
20260508094657 88 302 4.3 6.1 0.00 0.00 0.00 71 1009.0
20260508094157 88 252 4.3 5.2 0.00 0.00 0.00 70 1009.0
20260508093657 88 121 1.7 1.7 0.00 0.00 0.00 70 1009.0
20260508093158 89 258 5.2 6.1 0.00 0.00 0.00 69 1009.0
20260508092658 89 278 5.2 6.1 0.00 0.00 0.00 69 1009.0
20260508092158 89 311 6.1 7.8 0.00 0.00 0.00 68 1009.0
20260508091657 89 276 3.5 4.3 0.00 0.00 0.00 68 1009.0
20260508091157 88 303 4.3 4.3 0.00 0.00 0.00 68 1009.0
20260508090657 89 347 7.8 7.8 0.00 0.00 0.00 67 1009.0
20260508090158 89 295 7.0 7.8 0.00 0.00 0.00 67 1009.0
20260508085658 89 284 7.0 8.7 0.00 0.00 0.00 68 1009.0
20260508085157 89 256 3.5 4.3 0.00 0.00 0.00 69 1008.0
20260508084658 89 262 4.3 5.2 0.00 0.00 0.00 69 1009.0
20260508084157 89 293 4.3 5.2 0.00 0.00 0.00 70 1008.0
20260508083657 89 283 7.8 8.7 0.00 0.00 0.00 69 1008.0
20260508083157 89 297 3.5 5.2 0.00 0.00 0.00 68 1008.0
20260508082657 89 315 7.8 9.6 0.00 0.00 0.00 69 1008.0
20260508082157 90 324 6.1 8.7 0.00 0.00 0.00 69 1008.0
20260508081657 90 273 5.2 7.0 0.00 0.00 0.00 68 1008.0
20260508081157 89 251 5.2 7.0 0.00 0.00 0.00 70 1009.0
20260508080658 90 335 5.2 6.1 0.00 0.00 0.00 69 1008.0
20260508080157 90 256 5.2 6.1 0.00 0.00 0.00 69 1008.0
20260508075657 90 259 7.0 8.7 0.00 0.00 0.00 68 1008.0
20260508075157 90 252 5.2 7.0 0.00 0.00 0.00 66 1008.0
20260508074657 90 294 7.8 9.6 0.00 0.00 0.00 65 1008.0
20260508074158 91 308 8.7 12.2 0.00 0.00 0.00 64 1008.0
20260508073658 91 327 7.0 8.7 0.00 0.00 0.00 66 1008.0
20260508073157 91 270 6.1 7.8 0.00 0.00 0.00 63 1008.0
20260508072658 91 201 7.8 8.7 0.00 0.00 0.00 63 1008.0
20260508072158 91 184 6.1 7.8 0.00 0.00 0.00 62 1008.0
20260508071657 91 313 4.3 5.2 0.00 0.00 0.00 62 1008.0
20260508071157 91 279 7.0 7.8 0.00 0.00 0.00 62 1008.0
20260508070657 92 279 7.0 7.8 0.00 0.00 0.00 61 1008.0
20260508070157 92 315 5.2 7.0 0.00 0.00 0.00 62 1008.0
20260508065657 91 299 7.8 9.6 0.00 0.00 0.00 62 1008.0
20260508065158 92 280 9.6 15.6 0.00 0.00 0.00 61 1008.0
20260508064657 92 287 4.3 5.2 0.00 0.00 0.00 60 1008.0
20260508064158 92 249 8.7 11.3 0.00 0.00 0.00 59 1008.0
20260508063658 92 307 6.1 7.8 0.00 0.00 0.00 60 1009.0
20260508063157 92 128 8.7 11.3 0.00 0.00 0.00 59 1009.0
20260508062657 92 290 4.3 6.1 0.00 0.00 0.00 59 1009.0
20260508062157 92 278 7.8 8.7 0.00 0.00 0.00 57 1008.0
20260508061657 92 307 7.8 8.7 0.00 0.00 0.00 57 1009.0
20260508061157 91 291 8.7 9.6 0.00 0.00 0.00 58 1009.0
20260508060658 91 241 7.8 13.0 0.00 0.00 0.00 60 1009.0
20260508060158 92 280 7.8 8.7 0.00 0.00 0.00 58 1009.0
20260508055658 92 275 6.1 7.8 0.00 0.00 0.00 58 1009.0
20260508055157 92 300 7.8 8.7 0.00 0.00 0.00 56 1009.0
20260508054657 92 92 4.3 5.2 0.00 0.00 0.00 59 1009.0
20260508054158 92 329 9.6 13.9 0.00 0.00 0.00 58 1009.0
20260508053657 92 304 6.1 7.8 0.00 0.00 0.00 59 1009.0
20260508053158 92 335 7.0 7.8 0.00 0.00 0.00 59 1009.0
20260508052658 92 300 7.0 7.0 0.00 0.00 0.00 58 1009.0
20260508052157 92 269 8.7 9.6 0.00 0.00 0.00 57 1009.0
20260508051657 92 281 7.8 8.7 0.00 0.00 0.00 59 1009.0
20260508051157 92 220 4.3 5.2 0.00 0.00 0.00 59 1009.0
20260508050657 92 264 7.8 8.7 0.00 0.00 0.00 58 1009.0
20260508050157 92 267 5.2 7.0 0.00 0.00 0.00 59 1009.0
20260508045658 91 11 7.8 7.8 0.00 0.00 0.00 60 1009.0
20260508045158 92 345 7.8 9.6 0.00 0.00 0.00 59 1010.0
20260508044657 91 328 7.8 9.6 0.00 0.00 0.00 60 1010.0
20260508044157 91 295 7.8 11.3 0.00 0.00 0.00 59 1010.0
20260508043657 91 1 7.8 8.7 0.00 0.00 0.00 59 1010.0
20260508043157 92 314 7.0 7.8 0.00 0.00 0.00 59 1010.0
20260508042657 92 293 5.2 6.1 0.00 0.00 0.00 58 1010.0
20260508042157 92 290 7.8 8.7 0.00 0.00 0.00 58 1010.0
20260508041701 93 291 7.0 8.7 0.00 0.00 0.00 57 1010.0
20260508041157 91 342 4.3 5.2 0.00 0.00 0.00 59 1010.0
20260508040657 91 332 6.1 7.8 0.00 0.00 0.00 58 1010.0
20260508040157 91 313 7.0 8.7 0.00 0.00 0.00 58 1010.0
20260508035700 91 337 6.1 7.0 0.00 0.00 0.00 58 1010.0
20260508035158 92 331 7.8 11.3 0.00 0.00 0.00 58 1010.0
20260508034657 92 357 7.8 8.7 0.00 0.00 0.00 57 1010.0
20260508034158 92 347 7.8 8.7 0.00 0.00 0.00 56 1011.0
20260508033657 92 266 4.3 5.2 0.00 0.00 0.00 56 1010.0
20260508033157 91 325 9.6 12.2 0.00 0.00 0.00 57 1011.0
20260508032657 92 329 7.0 7.8 0.00 0.00 0.00 56 1011.0
20260508032158 91 293 4.3 5.2 0.00 0.00 0.00 58 1011.0
20260508031657 91 0 5.2 6.1 0.00 0.00 0.00 58 1011.0
20260508031158 91 184 1.7 1.7 0.00 0.00 0.00 58 1011.0
20260508030658 91 248 4.3 6.1 0.00 0.00 0.00 58 1011.0
20260508030157 91 334 8.7 11.3 0.00 0.00 0.00 59 1011.0
20260508025657 91 93 3.5 5.2 0.00 0.00 0.00 62 1011.0
20260508025157 90 237 4.3 6.1 0.00 0.00 0.00 65 1011.0
20260508024657 90 175 2.6 4.3 0.00 0.00 0.00 65 1012.0
20260508024157 90 161 2.6 4.3 0.00 0.00 0.00 66 1012.0
20260508023657 89 175 2.6 2.6 0.00 0.00 0.00 70 1012.0
20260508023158 90 181 4.3 5.2 0.00 0.00 0.00 70 1012.0
20260508022657 89 161 0.0 0.0 0.00 0.00 0.00 70 1012.0
20260508022157 89 203 3.5 4.3 0.00 0.00 0.00 70 1012.0
20260508021657 89 187 2.6 4.3 0.00 0.00 0.00 71 1012.0
20260508021157 88 188 3.5 4.3 0.00 0.00 0.00 72 1012.0
20260508020657 89 234 2.6 2.6 0.00 0.00 0.00 71 1012.0
20260508020158 89 167 1.7 1.7 0.00 0.00 0.00 73 1012.0
20260508015658 89 170 2.6 2.6 0.00 0.00 0.00 73 1012.0
20260508015157 87 171 0.0 0.0 0.00 0.00 0.00 75 1012.0
20260508014658 87 205 2.6 2.6 0.00 0.00 0.00 75 1012.0
20260508014157 87 194 2.6 4.3 0.00 0.00 0.00 76 1012.0
20260508013658 87 188 2.6 2.6 0.00 0.00 0.00 76 1012.0
20260508013157 86 176 0.0 0.9 0.00 0.00 0.00 78 1012.0
20260508012657 86 147 1.7 2.6 0.00 0.00 0.00 78 1012.0
20260508012157 86 160 1.7 1.7 0.00 0.00 0.00 78 1012.0
20260508011659 86 157 0.0 0.9 0.00 0.00 0.00 77 1012.0
20260508011159 85 172 1.7 1.7 0.00 0.00 0.00 79 1012.0
20260508010657 85 164 2.6 2.6 0.00 0.00 0.00 79 1012.0
20260508010157 84 159 0.9 1.7 0.00 0.00 0.00 81 1012.0
20260508005658 84 146 1.7 1.7 0.00 0.00 0.00 81 1012.0
20260508005158 84 171 0.9 0.9 0.00 0.00 0.00 81 1012.0
20260508004657 84 178 0.9 1.7 0.00 0.00 0.00 82 1012.0
20260508004158 83 186 0.9 0.9 0.00 0.00 0.00 82 1012.0
20260508003657 82 176 0.0 0.0 0.00 0.00 0.00 84 1012.0
20260508003157 82 162 0.9 1.7 0.00 0.00 0.00 84 1012.0
20260508002657 82 117 0.9 0.9 0.00 0.00 0.00 85 1012.0
20260508002157 82 168 1.7 1.7 0.00 0.00 0.00 85 1012.0
20260508001657 81 146 1.7 1.7 0.00 0.00 0.00 86 1012.0
20260508001157 81 121 2.6 2.6 0.00 0.00 0.00 86 1012.0
20260508000657 81 141 2.6 2.6 0.00 0.00 0.00 86 1012.0
20260508000157 81 166 0.0 0.0 0.00 0.00 0.00 86 1012.0
20260507235659 81 161 0.9 0.9 0.00 0.00 0.00 87 1011.0
20260507235157 80 148 0.9 1.7 0.00 0.00 0.00 87 1012.0
20260507234657 80 167 0.0 0.0 0.00 0.00 0.00 87 1012.0
20260507234157 80 163 0.0 0.0 0.00 0.00 0.00 88 1012.0
20260507233658 80 162 0.0 0.0 0.00 0.00 0.00 89 1011.0
20260507233157 79 148 0.9 0.9 0.00 0.00 0.00 89 1011.0
20260507232657 79 149 0.0 0.0 0.00 0.00 0.00 90 1011.0
20260507232157 79 158 0.0 0.0 0.00 0.00 0.00 91 1011.0
20260507231657 78 158 0.9 1.7 0.00 0.00 0.00 91 1011.0
20260507231157 78 157 0.9 0.9 0.00 0.00 0.00 92 1011.0
20260507230657 78 145 1.7 2.6 0.00 0.00 0.00 92 1011.0
20260507230158 78 136 2.6 2.6 0.00 0.00 0.00 92 1011.0
20260507225657 78 144 0.9 1.7 0.00 0.00 0.00 93 1011.0
20260507225158 78 160 1.7 1.7 0.00 0.00 0.00 93 1011.0
20260507224657 78 113 1.7 1.7 0.00 0.00 0.00 93 1011.0
20260507224157 78 126 2.6 2.6 0.00 0.00 0.00 93 1011.0
20260507223657 78 125 2.6 2.6 0.00 0.00 0.00 93 1011.0
20260507223157 78 148 0.9 0.9 0.00 0.00 0.00 93 1011.0
20260507222658 78 128 1.7 1.7 0.00 0.00 0.00 93 1011.0
20260507222158 77 125 2.6 2.6 0.00 0.00 0.00 94 1011.0
20260507221658 78 147 0.9 1.7 0.00 0.00 0.00 94 1011.0
20260507221157 78 152 0.9 0.9 0.00 0.00 0.00 94 1011.0
20260507220657 78 145 0.9 0.9 0.00 0.00 0.00 94 1010.0
20260507220157 78 155 0.0 0.0 0.00 0.00 0.00 94 1010.0
20260507215657 78 157 0.0 0.0 0.00 0.00 0.00 94 1010.0
20260507215157 78 129 1.7 1.7 0.00 0.00 0.00 94 1010.0
20260507214657 78 102 1.7 1.7 0.00 0.00 0.00 94 1010.0
20260507214158 78 137 0.9 1.7 0.00 0.00 0.00 94 1010.0
20260507213657 78 127 0.9 0.9 0.00 0.00 0.00 94 1010.0
20260507213159 78 132 1.7 1.7 0.00 0.00 0.00 95 1010.0
20260507212657 78 130 0.9 0.9 0.00 0.00 0.00 94 1010.0
20260507212157 78 141 1.7 1.7 0.00 0.00 0.00 94 1010.0
20260507211657 78 147 0.0 0.0 0.00 0.00 0.00 94 1010.0
20260507211157 78 120 2.6 2.6 0.00 0.00 0.00 94 1010.0
20260507210657 78 140 0.9 0.9 0.00 0.00 0.00 94 1010.0
20260507210157 79 156 0.0 0.9 0.00 0.00 0.00 94 1010.0
20260507205657 79 157 0.0 0.0 0.00 0.00 0.00 94 1010.0
20260507205157 79 138 0.0 0.0 0.00 0.00 0.00 94 1010.0
20260507204657 79 157 0.0 0.0 0.00 0.00 0.00 94 1010.0
20260507204157 79 158 0.0 0.9 0.00 0.00 0.00 94 1010.0
20260507203657 79 149 1.7 1.7 0.00 0.00 0.00 94 1010.0
20260507203158 79 129 2.6 2.6 0.00 0.00 0.00 94 1010.0
20260507202657 79 149 1.7 1.7 0.00 0.00 0.00 93 1010.0
20260507202157 79 123 0.9 1.7 0.00 0.00 0.00 94 1010.0
20260507201657 79 142 0.9 0.9 0.00 0.00 0.00 94 1010.0
20260507201157 79 150 0.9 1.7 0.00 0.00 0.00 94 1010.0
20260507200657 79 153 0.9 0.9 0.00 0.00 0.00 94 1010.0
20260507200158 79 145 0.0 0.0 0.00 0.00 0.00 94 1010.0
20260507195657 79 156 0.9 0.9 0.00 0.00 0.00 94 1010.0
20260507195158 79 136 1.7 1.7 0.00 0.00 0.00 93 1010.0
20260507194657 79 146 0.0 0.9 0.00 0.00 0.00 93 1010.0
20260507194157 79 157 0.9 1.7 0.00 0.00 0.00 93 1010.0
20260507193659 79 142 1.7 1.7 0.00 0.00 0.00 93 1010.0
20260507193158 79 152 0.9 1.7 0.00 0.00 0.00 93 1010.0
20260507192657 79 152 1.7 1.7 0.00 0.00 0.00 93 1011.0
20260507192157 79 155 0.0 0.0 0.00 0.00 0.00 93 1010.0
20260507191657 79 124 0.9 1.7 0.00 0.00 0.00 93 1010.0
20260507191157 79 140 1.7 1.7 0.00 0.00 0.00 93 1010.0
20260507190658 79 150 1.7 1.7 0.00 0.00 0.00 93 1011.0
20260507190158 79 119 2.6 2.6 0.00 0.00 0.00 93 1011.0
20260507185657 79 133 1.7 1.7 0.00 0.00 0.00 93 1011.0